Time,TemperatureF,DewpointF,PressureIn,WindDirection,WindDirectionDegrees,WindSpeedMPH,WindSpeedGustMPH,Humidity,HourlyPrecipIn,Conditions,Clouds,dailyrainin,SolarRadiationWatts/m^2,SoftwareType,DateUTC
2013-09-22 18:45:00,75.2,60.9,29.61,North,-999,-999.0,-999.0,61,-99.99,,,-99.99,1.0,HOBO +U30 +Weather +,2013-09-22 22:45:00,
2013-09-22 18:50:00,75.2,60.7,29.61,North,-999,-999.0,-999.0,60,-99.99,,,-99.99,1.0,HOBO +U30 +Weather +,2013-09-22 22:50:00,
2013-09-22 18:55:00,75.2,60.7,29.61,North,-999,-999.0,-999.0,60,-99.99,,,-99.99,1.0,HOBO +U30 +Weather +,2013-09-22 22:55:00,
2013-09-22 19:00:00,75.1,60.6,29.61,North,-999,-999.0,-999.0,60,-99.99,,,-99.99,1.0,HOBO +U30 +Weather +,2013-09-22 23:00:00,
2013-09-22 19:05:00,75.1,60.5,29.61,North,-999,-999.0,-999.0,60,-99.99,,,-99.99,1.0,HOBO +U30 +Weather +,2013-09-22 23:05:00,
2013-09-22 19:15:00,75.1,60.4,29.61,North,-999,-999.0,-999.0,60,-99.99,,,-99.99,1.0,HOBO +U30 +Weather +,2013-09-22 23:15:00,
2013-09-22 19:16:00,75.1,60.4,29.61,North,-999,-999.0,-999.0,60,-99.99,,,-99.99,1.0,HOBO +U30 +Weather +,2013-09-22 23:16:00,
2013-09-22 19:20:00,75.1,60.4,29.63,North,-999,-999.0,-999.0,60,-99.99,,,-99.99,1.0,HOBO +U30 +Weather +,2013-09-22 23:20:00,
2013-09-22 19:25:00,75.0,60.3,29.62,North,-999,-999.0,-999.0,60,-99.99,,,-99.99,1.0,HOBO +U30 +Weather +,2013-09-22 23:25:00,
2013-09-22 19:30:00,75.0,60.3,29.63,North,-999,-999.0,-999.0,60,-99.99,,,-99.99,1.0,HOBO +U30 +Weather +,2013-09-22 23:30:00,
2013-09-22 19:35:00,75.0,60.4,29.63,North,-999,-999.0,-999.0,60,-99.99,,,-99.99,1.0,HOBO +U30 +Weather +,2013-09-22 23:35:00,
2013-09-22 19:40:00,75.0,60.2,29.62,North,-999,-999.0,-999.0,59,-99.99,,,-99.99,1.0,HOBO +U30 +Weather +,2013-09-22 23:40:00,
2013-09-22 19:45:00,75.0,60.0,29.64,North,-999,-999.0,-999.0,59,-99.99,,,-99.99,1.0,HOBO +U30 +Weather +,2013-09-22 23:45:00,
2013-09-22 19:50:00,74.9,60.0,29.64,North,-999,-999.0,-999.0,59,-99.99,,,-99.99,1.0,HOBO +U30 +Weather +,2013-09-22 23:50:00,
2013-09-22 19:55:00,74.9,60.0,29.63,North,-999,-999.0,-999.0,59,-99.99,,,-99.99,1.0,HOBO +U30 +Weather +,2013-09-22 23:55:00,
2013-09-22 20:00:00,74.9,59.8,29.64,North,-999,-999.0,-999.0,59,-99.99,,,-99.99,1.0,HOBO +U30 +Weather +,2013-09-23 00:00:00,
2013-09-22 20:05:00,74.9,59.8,29.65,North,-999,-999.0,-999.0,59,-99.99,,,-99.99,1.0,HOBO +U30 +Weather +,2013-09-23 00:05:00,
2013-09-22 20:10:00,74.9,59.8,29.64,North,-999,-999.0,-999.0,59,-99.99,,,-99.99,1.0,HOBO +U30 +Weather +,2013-09-23 00:10:00,
2013-09-22 20:15:00,74.9,59.9,29.65,North,-999,-999.0,-999.0,59,-99.99,,,-99.99,1.0,HOBO +U30 +Weather +,2013-09-23 00:15:00,
2013-09-22 20:20:00,74.8,59.7,29.65,North,-999,-999.0,-999.0,59,-99.99,,,-99.99,1.0,HOBO +U30 +Weather +,2013-09-23 00:20:00,
2013-09-22 20:25:00,74.8,59.6,29.65,North,-999,-999.0,-999.0,59,-99.99,,,-99.99,1.0,HOBO +U30 +Weather +,2013-09-23 00:25:00,
2013-09-22 20:30:00,74.8,59.7,29.65,North,-999,-999.0,-999.0,59,-99.99,,,-99.99,1.0,HOBO +U30 +Weather +,2013-09-23 00:30:00,
2013-09-22 20:35:00,74.7,59.6,29.65,North,-999,-999.0,-999.0,59,-99.99,,,-99.99,1.0,HOBO +U30 +Weather +,2013-09-23 00:35:00,
2013-09-22 20:40:00,74.7,59.5,29.65,North,-999,-999.0,-999.0,59,-99.99,,,-99.99,1.0,HOBO +U30 +Weather +,2013-09-23 00:40:00,
2013-09-22 20:45:00,74.7,59.5,29.66,North,-999,-999.0,-999.0,59,-99.99,,,-99.99,1.0,HOBO +U30 +Weather +,2013-09-23 00:45:00,
2013-09-22 20:50:00,74.7,59.5,29.65,North,-999,-999.0,-999.0,59,-99.99,,,-99.99,1.0,HOBO +U30 +Weather +,2013-09-23 00:50:00,
2013-09-22 20:55:00,74.6,59.5,29.66,North,-999,-999.0,-999.0,59,-99.99,,,-99.99,1.0,HOBO +U30 +Weather +,2013-09-23 00:55:00,
2013-09-22 21:00:00,74.6,59.4,29.66,North,-999,-999.0,-999.0,59,-99.99,,,-99.99,1.0,HOBO +U30 +Weather +,2013-09-23 01:00:00,
2013-09-22 21:14:00,74.6,59.4,29.67,North,-999,-999.0,-999.0,59,-99.99,,,-99.99,1.0,HOBO +U30 +Weather +,2013-09-23 01:14:00,
2013-09-22 21:15:00,74.6,59.4,29.67,North,-999,-999.0,-999.0,59,-99.99,,,-99.99,1.0,HOBO +U30 +Weather +,2013-09-23 01:15:00,
2013-09-22 21:20:00,74.5,59.3,29.67,North,-999,-999.0,-999.0,59,-99.99,,,-99.99,1.0,HOBO +U30 +Weather +,2013-09-23 01:20:00,
2013-09-22 21:25:00,74.5,59.2,29.67,North,-999,-999.0,-999.0,59,-99.99,,,-99.99,1.0,HOBO +U30 +Weather +,2013-09-23 01:25:00,
2013-09-22 21:30:00,74.5,59.2,29.67,North,-999,-999.0,-999.0,58,-99.99,,,-99.99,1.0,HOBO +U30 +Weather +,2013-09-23 01:30:00,
2013-09-22 21:35:00,74.4,59.3,29.67,North,-999,-999.0,-999.0,59,-99.99,,,-99.99,1.0,HOBO +U30 +Weather +,2013-09-23 01:35:00,
2013-09-22 21:40:00,74.4,59.2,29.67,North,-999,-999.0,-999.0,59,-99.99,,,-99.99,1.0,HOBO +U30 +Weather +,2013-09-23 01:40:00,
2013-09-22 21:45:00,74.4,59.1,29.67,North,-999,-999.0,-999.0,59,-99.99,,,-99.99,1.0,HOBO +U30 +Weather +,2013-09-23 01:45:00,
2013-09-22 21:50:00,74.3,59.1,29.67,North,-999,-999.0,-999.0,58,-99.99,,,-99.99,1.0,HOBO +U30 +Weather +,2013-09-23 01:50:00,
2013-09-22 21:55:00,74.3,59.0,29.68,North,-999,-999.0,-999.0,58,-99.99,,,-99.99,1.0,HOBO +U30 +Weather +,2013-09-23 01:55:00,
2013-09-22 22:00:00,74.3,59.0,29.67,North,-999,-999.0,-999.0,58,-99.99,,,-99.99,1.0,HOBO +U30 +Weather +,2013-09-23 02:00:00,
2013-09-22 22:05:00,74.2,59.0,29.69,North,-999,-999.0,-999.0,58,-99.99,,,-99.99,1.0,HOBO +U30 +Weather +,2013-09-23 02:05:00,
2013-09-22 22:10:00,74.2,58.9,29.69,North,-999,-999.0,-999.0,58,-99.99,,,-99.99,1.0,HOBO +U30 +Weather +,2013-09-23 02:10:00,
2013-09-22 22:15:00,74.2,58.9,29.68,North,-999,-999.0,-999.0,58,-99.99,,,-99.99,1.0,HOBO +U30 +Weather +,2013-09-23 02:15:00,
2013-09-22 22:20:00,74.2,58.8,29.68,North,-999,-999.0,-999.0,58,-99.99,,,-99.99,1.0,HOBO +U30 +Weather +,2013-09-23 02:20:00,
2013-09-22 22:25:00,74.2,58.8,29.69,North,-999,-999.0,-999.0,58,-99.99,,,-99.99,1.0,HOBO +U30 +Weather +,2013-09-23 02:25:00,
2013-09-22 22:30:00,74.1,58.7,29.68,North,-999,-999.0,-999.0,58,-99.99,,,-99.99,1.0,HOBO +U30 +Weather +,2013-09-23 02:30:00,
2013-09-22 22:35:00,74.1,58.6,29.68,North,-999,-999.0,-999.0,58,-99.99,,,-99.99,1.0,HOBO +U30 +Weather +,2013-09-23 02:35:00,
2013-09-22 22:40:00,74.1,58.6,29.68,North,-999,-999.0,-999.0,58,-99.99,,,-99.99,1.0,HOBO +U30 +Weather +,2013-09-23 02:40:00,
2013-09-22 22:45:00,74.0,58.5,29.69,North,-999,-999.0,-999.0,58,-99.99,,,-99.99,1.0,HOBO +U30 +Weather +,2013-09-23 02:45:00,
2013-09-22 22:50:00,74.0,58.5,29.69,North,-999,-999.0,-999.0,58,-99.99,,,-99.99,1.0,HOBO +U30 +Weather +,2013-09-23 02:50:00,
2013-09-22 22:55:00,74.0,58.5,29.69,North,-999,-999.0,-999.0,58,-99.99,,,-99.99,1.0,HOBO +U30 +Weather +,2013-09-23 02:55:00,
2013-09-22 23:00:00,73.9,58.3,29.69,North,-999,-999.0,-999.0,58,-99.99,,,-99.99,1.0,HOBO +U30 +Weather +,2013-09-23 03:00:00,
2013-09-22 23:13:00,73.9,58.1,29.69,North,-999,-999.0,-999.0,57,-99.99,,,-99.99,1.0,HOBO +U30 +Weather +,2013-09-23 03:13:00,
2013-09-22 23:15:00,73.9,58.2,29.70,North,-999,-999.0,-999.0,57,-99.99,,,-99.99,1.0,HOBO +U30 +Weather +,2013-09-23 03:15:00,
2013-09-22 23:20:00,73.8,58.0,29.70,North,-999,-999.0,-999.0,57,-99.99,,,-99.99,1.0,HOBO +U30 +Weather +,2013-09-23 03:20:00,
2013-09-22 23:25:00,73.8,58.0,29.70,North,-999,-999.0,-999.0,57,-99.99,,,-99.99,1.0,HOBO +U30 +Weather +,2013-09-23 03:25:00,
2013-09-22 23:30:00,73.8,57.9,29.70,North,-999,-999.0,-999.0,57,-99.99,,,-99.99,1.0,HOBO +U30 +Weather +,2013-09-23 03:30:00,
2013-09-22 23:35:00,73.7,57.9,29.70,North,-999,-999.0,-999.0,57,-99.99,,,-99.99,1.0,HOBO +U30 +Weather +,2013-09-23 03:35:00,
2013-09-22 23:40:00,73.7,57.7,29.69,North,-999,-999.0,-999.0,57,-99.99,,,-99.99,1.0,HOBO +U30 +Weather +,2013-09-23 03:40:00,
2013-09-22 23:45:00,73.7,57.7,29.70,North,-999,-999.0,-999.0,57,-99.99,,,-99.99,1.0,HOBO +U30 +Weather +,2013-09-23 03:45:00,
2013-09-22 23:50:00,73.7,57.7,29.70,North,-999,-999.0,-999.0,57,-99.99,,,-99.99,1.0,HOBO +U30 +Weather +,2013-09-23 03:50:00,
2013-09-22 23:55:00,73.7,57.7,29.70,North,-999,-999.0,-999.0,57,-99.99,,,-99.99,1.0,HOBO +U30 +Weather +,2013-09-23 03:55:00,